Other Public Products
Issued by NWS Charleston, SC

Current Version | Previous Version | Graphics & Text | Print | Product List | Glossary On
Versions: 1 2 3 4 5 6 7 8 9 10 11 12 13 14 15 16 17 18 19 20 21 22 23 24 25 26 27 28 29 30 31 32 33 34 35 36 37 38 39 40 41 42 43 44 45 46 47 48 49 50
294
FPUS82 KCHS 230927
OPUCHS

TEST...KCHS/KSAV Gateway Observations...TEST
National Weather Service Charleston SC
500 AM EDT SAT SEP 23 2017

NOTE: "fair" indicates few or no clouds below 12,000 feet with no
significant weather and/or obstructions to visibility.

SCZ050-WAZ558-NCZ071-TXZ119-213-PAZ071-DCZ001-FLZ074-172-MI076-
NYZ176-178-MAZ016-IL014-TNZ027-NJZ106-GAZ044-MD014-231000-

...Gateway Observations for Charleston International...

CITY           SKY/WX    TMP DP  RH WIND       PRES   REMARKS
Chas Airport   PTCLDY    70  70 100 N5        29.98S
Seattle        CLOUDY    56  51  84 S6        30.05S
Charlotte      PTCLDY    67  67 100 N3        30.04S
Dallas DFW     CLEAR     77  69  76 S8        29.91S
Dallas Love    PTCLDY    78  67  68 S12       29.93S
Philladelphia  PTCLDY    69  51  52 NW6       30.02R
Wash National  PTCLDY    66  61  84 N7        30.04R
Baltimore      PTCLDY    59  58  96 W3        30.03R
Miami          MOCLDY    79  78  97 CALM      29.80S
Detroit        CLEAR     66  64  93 CALM      30.09S
Newark         CLEAR     70  51  51 N13       29.98S
Laguardia      PTCLDY    71  57  61 N12       29.98R
J F K          PTCLDY    71  55  56 N12       29.98R
Boston Logan   CLOUDY    61  59  93 N14       29.99S
Ft. Lauderdale PTCLDY    78  78 100 CALM      29.79S
Chicago O`Hare CLEAR     74  65  73 W3        30.03S
Chicago Midway CLEAR     77  67  71 CALM      30.03S
Houston Bush   CLEAR     74  72  93 CALM      29.91S
Houston Hobby  NOT AVBL
Nashville      PTCLDY    70  68  93 NE3       30.02S
Atlanta        PTCLDY    72  67  84 NE6       30.03S

$$

GAZ044-118-TXZ119-213-NCZ071-DCZ001-MDZ014-506-PAZ021-071-NJZ106-
NYZ176-178-MAZ106-OHZ011-021-055-MIZ076-KYZ091-ILZ014-INZ047-
MNZ060-ONZ431-231000-

...Gateway Observations for Savannah International...

CITY           SKY/WX    TMP DP  RH WIND       PRES   REMARKS
Savannah Arpt  CLOUDY    71  71 100 N3        29.98R FOG
Atlanta        PTCLDY    72  67  84 NE6       30.03S
Charlotte      PTCLDY    67  67 100 N3        30.04S
Dallas DFW     CLEAR     77  69  76 S8        29.91S
Houston Bush   CLEAR     74  72  93 CALM      29.91S
Wash National  PTCLDY    66  61  84 N7        30.04R
Wash Dulles    CLOUDY    60  60 100 NW3       30.05R
Baltimore      PTCLDY    59  58  96 W3        30.03R
Philadelphia   PTCLDY    69  51  52 NW6       30.02R
Newark         CLEAR     70  51  51 N13       29.98S
Laguardia      PTCLDY    71  57  61 N12       29.98R
J F K          PTCLDY    71  55  56 N12       29.98R
Boston         CLOUDY    61  59  93 N14       29.99S
Pittsburg      CLEAR     59  56  89 CALM      30.09R
Akron          PTCLDY    61  57  87 NE3       30.11S
Cleveland      CLEAR     64  60  87 S3        30.11S
Cincinnati     CLEAR     66  66 100 CALM      30.07S
Columbus       CLEAR     64  63  99 CALM      30.08R
Detroit        CLEAR     66  64  93 CALM      30.09S
Chicago O`Hare CLEAR     74  65  73 W3        30.03S
Minneapolis    CLOUDY    80  69  69 S12G20    29.87R
Indianapolis   PTCLDY    71  66  84 SE3       30.06S
Toronto Canada CLEAR     64  52  63 VRB2      30.07R

$$




USA.gov is the U.S. government's official web portal to all federal, state and local government web resources and services.